RH
80 78 80 86 91 89 88 85 77 48 40 40 76 93 78 82 75 80 76 87 86 75 48 56 77 87 82 81 88 74 60 98 99 93 99 100 100 100 99 99 98 99 97
85 81 80 85 90 89 88 85 80 48 47 34 44 86 86 82 71 67 59 65 80 67 58 61 81 87 81 85 83 67 42 45 78 100 100 100 99 100 100 100 100 98 94
85 86 82 80 78 82 90 84 88 56 49 48 44 72 77 74 66 59 62 65 73 63 64 62 77 89 77 79 77 69 45 47 96 99 100 100 94 100 99 94 93 87 93
86 89 84 77 74 80 88 86 90 76 68 64 70 66 71 69 65 76 77 77 76 64 60 49 69 91 76 76 61 54 40 39 77 84 79 93 91 60 44 45 43 45 42
85 93 88 77 79 82 92 94 87 76 78 81 73 77 76 74 76 77 83 80 78 64 63 47 77 91 91 75 70 53 29 27 32 45 56 42 40 50 53 46 28 33 26
85 86 93 82 85 85 93 92 81 70 87 84 83 81 78 80 79 84 86 80 60 73 82 48 81 88 92 80 74 68 42 24 24 26 28 29 30 32 34 29 27 27 28
97 87 100 91 86 86 84 87 85 75 84 85 83 81 79 82 81 84 86 79 74 84 91 54 73 90 96 95 75 69 56 25 23 24 26 26 27 28 28 27 27 28 29
100 94 88 97 91 89 90 87 87 82 81 84 76 81 80 89 77 83 83 96 92 97 99 74 63 91 95 92 93 70 65 52 31 26 26 28 29 31 31 31 30 30 30
100 100 96 92 95 92 86 88 87 82 84 81 79 77 77 81 86 82 88 91 96 100 98 90 65 81 96 99 99 78 69 64 59 56 54 52 52 54 55 56 53 40 34
100 99 100 100 98 95 88 82 85 84 83 83 82 79 76 74 81 91 83 86 100 100 99 97 82 74 94 97 99 91 75 70 69 65 63 63 63 64 68 67 67 59 45
94 100 99 100 100 98 94 83 82 87 84 75 82 82 77 78 78 77 92 86 100 98 100 100 91 72 75 92 99 97 91 78 77 73 69 69 69 71 83 88 80 72 65
77 96 100 100 100 97 96 90 78 84 84 77 74 80 76 78 80 78 75 72 90 100 94 98 91 87 76 73 74 82 90 94 83 85 80 74 74 89 97 98 95 85 78
59 73 99 99 100 99 98 97 87 85 87 84 79 76 79 76 78 80 69 70 76 97 96 98 95 91 87 83 74 74 86 92 89 84 86 78 87 86 94 97 97 98 87
36 53 75 98 100 99 98 100 96 88 84 80 87 78 77 79 75 81 77 65 73 82 93 98 98 96 96 96 81 83 88 95 90 96 97 88 92 97 98 100 99 99 99
31 37 52 63 96 100 100 100 99 94 92 90 98 94 89 78 78 77 83 78 68 74 88 84 87 90 97 98 85 82 89 96 95 94 96 94 94 95 98 95 92 97 94
38 37 40 50 64 93 99 100 100 97 89 96 98 97 97 88 82 81 82 85 82 70 67 58 52 83 87 87 85 86 91 96 94 93 91 95 94 90 92 89 90 91 93
48 45 43 45 48 68 97 100 99 100 94 94 100 98 99 93 91 86 84 87 88 79 77 70 63 67 69 61 67 79 94 93 91 94 94 99 100 100 98 97 92 87 88
58 58 50 43 45 50 80 98 99 100 97 98 94 100 99 85 93 91 89 92 93 83 78 77 70 66 61 63 65 71 75 78 77 67 72 86 79 71 67 60 60 67 84
66 66 63 52 42 43 57 90 100 100 94 91 86 99 95 96 96 92 96 96 89 91 83 79 76 73 73 64 69 66 67 66 63 63 62 63 64 63 64 67 67 66 65
77 73 71 62 54 47 48 77 99 99 100 83 79 91 99 94 90 87 82 76 69 92 90 88 81 82 80 71 72 70 66 64 64 64 66 72 75 77 79 81 82 81 71
82 81 81 77 63 62 49 60 71 100 100 77 86 98 98 96 95 85 73 67 73 86 92 90 89 89 85 78 74 70 70 74 75 73 75 82 84 86 85 87 90 95 82
88 87 84 89 78 62 46 46 57 100 99 97 92 100 100 100 100 98 76 80 60 66 73 68 75 82 82 69 66 72 79 82 87 76 82 84 92 93 89 89 93 96 95
96 95 96 92 88 68 51 41 50 69 80 100 93 96 100 98 100 100 89 92 85 72 78 69 84 78 75 60 65 75 79 85 88 84 87 96 92 98 92 94 94 98 98
98 99 100 95 100 84 61 53 61 90 93 100 97 90 98 99 87 99 97 100 94 75 89 98 82 73 76 66 71 75 85 91 92 97 98 100 95 89 91 93 88 95 99
97 97 99 100 100 85 72 74 89 96 100 100 98 87 89 100 92 93 99 100 100 88 94 100 92 87 92 92 96 98 98 100 99 84 90 94 83 84 84 87 94 99 99
97 98 99 100 100 99 93 98 100 100 99 100 99 96 81 91 94 95 98 100 99 98 99 100 99 100 100 100 99 100 100 100 100 98 90 98 91 94 100 87 91 99 90
Wind_Speed
23 23 24 24 23 22 19 17 16 17 21 27 28 25 25 23 20 17 14 16 11 6 6 15 16 16 11 3 4 3 9 14 13 10 13 14 13 13 13 12 12 12 11
26 25 24 25 25 23 20 17 16 17 19 24 29 27 24 24 21 18 17 17 13 9 9 15 17 16 12 7 3 4 7 9 12 13 12 13 14 12 11 11 12 10 9
28 26 25 26 26 24 22 18 18 17 20 22 27 30 25 23 20 18 16 17 15 12 13 18 18 18 13 8 4 6 8 9 12 13 13 13 11 11 10 11 10 8 9
30 29 27 26 25 26 25 24 23 21 25 24 25 27 27 25 21 20 17 17 15 16 18 16 18 20 13 9 4 3 8 10 13 12 12 12 10 9 7 8 8 7 6
34 32 30 28 25 27 30 28 25 25 29 26 24 22 24 23 20 20 21 19 19 20 20 19 18 21 17 12 7 4 5 9 10 12 12 10 9 8 8 8 5 5 3
33 36 34 32 28 30 30 31 26 26 29 25 23 21 22 21 22 22 22 20 21 25 22 23 21 21 19 15 10 2 4 7 10 10 10 9 8 8 7 6 4 3 2
38 35 39 35 32 33 33 34 28 27 33 28 25 25 24 25 24 24 23 22 26 28 24 24 24 23 22 17 14 7 4 5 9 10 10 9 8 7 6 5 4 3 3
38 41 38 40 37 35 37 37 34 32 35 32 32 28 25 24 26 26 26 25 27 31 29 26 26 26 24 21 18 14 10 7 8 10 10 9 8 7 6 5 5 5 5
27 35 43 42 40 40 40 41 40 39 39 37 37 29 25 20 28 29 28 28 30 33 30 27 28 29 27 25 21 19 15 12 12 11 11 10 10 8 7 6 6 6 5
23 26 42 45 44 40 44 43 44 42 41 41 40 38 33 21 23 17 34 31 29 34 34 33 32 30 28 28 25 22 20 17 15 14 14 11 10 9 7 9 7 6 6
30 21 31 49 49 45 44 45 47 47 47 42 46 45 42 36 24 25 22 37 30 33 37 33 35 30 31 29 29 25 23 20 18 17 15 14 13 13 14 13 11 9 8
39 29 26 37 51 48 50 48 49 49 51 48 47 49 49 43 38 32 28 37 38 31 41 35 35 31 28 28 27 27 26 25 22 21 19 19 18 19 18 15 15 14 12
42 37 29 36 35 48 54 53 51 52 53 54 54 50 53 51 44 37 31 28 38 36 36 37 38 36 33 31 31 30 28 27 26 24 22 22 22 21 22 19 18 19 18
47 41 41 34 32 35 61 58 55 53 54 55 58 54 52 56 52 45 38 33 29 32 40 37 42 40 37 35 34 32 28 29 27 27 26 25 24 22 24 25 23 23 27
47 45 45 46 38 29 38 56 61 58 57 55 60 56 55 54 54 52 47 41 36 29 36 38 46 39 40 38 36 35 35 33 32 30 30 27 26 24 25 24 23 23 23
48 48 45 48 50 48 31 54 58 61 58 56 58 54 56 57 53 50 51 49 42 37 32 30 31 43 42 41 43 39 39 36 35 34 32 32 29 27 29 29 29 29 27
49 49 46 47 48 47 37 48 60 59 60 53 60 57 57 54 56 52 49 51 48 41 36 31 23 27 30 25 30 37 38 37 36 37 34 34 32 31 30 31 33 33 33
48 50 49 47 52 47 48 36 60 58 59 54 55 55 53 49 55 56 54 52 51 45 40 35 29 27 24 25 23 26 29 31 32 29 31 32 29 28 26 25 24 26 32
47 50 50 49 50 50 50 41 60 62 60 56 53 57 54 52 56 57 57 53 51 51 46 39 38 32 27 26 27 27 28 28 25 22 21 23 23 23 23 23 25 27 28
45 48 50 50 49 49 47 55 44 65 58 56 57 55 59 58 55 56 54 51 49 54 50 47 43 37 34 31 30 29 30 29 28 26 25 25 24 24 25 27 27 27 28
44 46 49 50 50 49 51 53 60 61 61 59 59 60 55 59 55 52 52 50 50 51 53 51 50 43 39 37 37 36 34 31 30 28 28 27 28 28 28 28 29 28 28
41 44 47 50 50 52 52 51 52 43 61 57 56 58 56 59 56 54 48 47 49 52 51 47 47 46 44 40 36 36 33 34 34 31 32 30 30 30 31 31 32 31 30
35 41 45 48 50 53 51 54 54 59 67 55 59 57 60 59 55 50 49 52 50 49 46 43 45 46 44 41 39 37 35 35 34 34 32 30 29 30 28 26 30 31 32
28 35 41 46 47 53 51 48 51 55 57 60 61 58 56 58 55 52 48 50 48 51 48 46 47 45 41 38 37 34 32 34 35 34 34 36 28 29 29 29 30 30 30
25 28 37 41 44 51 52 47 48 49 51 55 56 56 54 57 50 51 54 49 50 50 49 46 40 43 43 39 36 35 34 32 31 29 25 27 27 29 30 29 29 29 28
26 19 25 36 40 48 48 54 44 50 51 53 51 51 49 50 53 46 45 49 49 51 48 45 42 44 44 37 36 30 29 29 29 27 26 28 29 30 31 31 32 28 27
Wind_Direction
218 224 230 236 239 240 237 239 241 216 209 205 200 205 208 204 203 205 208 212 219 226 185 167 173 185 179 195 185 191 151 153 155 144 141 136 146 133 138 132 123 120 113
229 232 237 239 240 238 234 235 234 220 210 204 201 197 202 206 210 213 221 224 222 222 204 176 179 190 197 198 233 200 173 157 159 154 162 146 150 142 148 145 128 125 123
234 236 240 239 239 233 225 235 229 219 202 195 197 201 199 204 211 214 217 219 222 222 204 179 189 194 201 228 248 230 187 163 164 165 163 163 153 161 147 147 139 135 136
238 239 240 239 239 229 223 226 231 225 202 201 200 202 209 214 211 215 216 219 228 213 199 182 197 198 197 225 260 264 195 180 174 172 170 170 162 171 156 150 154 157 154
243 240 241 240 237 230 222 228 236 225 207 204 203 207 206 208 211 208 212 220 228 206 200 193 196 202 202 203 226 325 218 194 180 182 178 168 177 165 165 168 165 162 153
249 244 242 240 236 230 225 226 233 219 208 206 209 211 215 207 212 213 217 227 219 204 205 202 195 204 213 210 202 245 266 206 190 185 181 179 177 177 177 185 183 185 190
239 249 241 240 235 231 229 224 227 220 208 207 212 212 217 213 223 226 224 220 209 205 211 206 205 204 212 213 212 192 235 216 197 190 188 186 185 188 191 202 211 213 217
258 236 243 238 237 233 229 223 224 216 211 211 213 211 209 213 223 228 226 222 218 215 209 213 214 211 215 217 215 202 214 209 199 193 191 192 191 192 196 206 222 227 232
243 249 235 236 235 237 233 227 223 218 215 213 213 209 205 217 215 222 223 226 219 216 214 216 216 218 217 222 217 214 209 207 210 205 204 201 200 197 203 217 233 235 241
255 252 248 236 233 231 235 232 224 220 220 217 213 215 217 216 205 214 224 221 221 218 217 215 220 216 216 222 222 217 219 217 217 222 220 215 216 215 229 236 243 237 234
269 270 251 247 233 234 234 235 226 220 220 223 220 215 218 221 219 215 210 212 215 219 219 221 221 216 218 223 223 222 221 227 224 231 231 232 230 233 230 234 244 243 244
264 261 257 240 249 241 238 235 231 226 221 224 228 225 218 219 222 218 223 215 213 217 217 223 218 219 217 224 233 225 226 227 230 233 240 242 244 240 241 242 247 237 246
270 260 256 246 239 254 243 238 235 231 226 225 228 228 227 224 226 226 230 227 220 220 216 227 220 220 222 226 231 230 228 231 233 233 240 243 249 249 249 248 252 250 255
272 268 258 254 236 234 241 238 238 235 231 230 228 229 231 226 227 227 229 226 224 226 229 222 230 225 233 229 227 231 242 236 235 238 241 241 249 254 256 255 259 258 253
273 271 265 261 247 247 241 245 237 238 234 232 229 231 234 229 230 231 233 237 235 226 228 230 227 232 225 229 226 232 240 236 239 243 246 247 250 251 253 254 263 263 266
274 270 266 261 257 254 250 234 238 236 240 238 231 231 234 232 233 234 235 238 239 240 244 249 240 229 232 237 240 240 236 238 241 246 247 248 250 248 254 255 259 263 264
274 269 265 262 261 257 248 234 230 233 241 240 232 229 229 232 236 236 235 235 235 236 239 246 244 226 228 234 238 237 236 239 241 243 246 249 250 249 253 254 253 256 259
274 270 264 259 257 260 244 244 229 234 236 236 238 235 227 232 235 238 238 234 232 230 234 237 233 221 231 233 233 227 229 233 238 242 245 245 249 251 252 253 255 256 252
276 272 266 258 254 254 248 244 236 230 234 239 232 233 228 228 231 235 236 234 231 231 231 232 235 236 242 237 226 226 229 233 235 235 232 237 240 243 246 251 258 262 260
279 272 267 258 254 252 247 241 242 224 229 233 238 232 231 232 228 231 232 230 226 227 228 231 233 238 243 238 229 231 232 232 235 236 237 243 245 250 253 256 261 266 262
281 274 269 260 253 247 240 239 237 228 225 232 234 233 234 233 230 232 232 231 227 228 229 229 234 237 237 230 227 229 233 238 244 245 245 245 249 252 255 261 268 269 262
282 275 266 259 253 244 241 241 236 221 220 224 230 233 237 233 232 229 231 237 233 228 226 225 228 229 230 230 232 236 237 240 244 247 248 250 254 257 258 258 265 271 264
284 273 265 259 252 245 235 233 235 232 238 233 231 229 225 233 235 232 229 237 236 231 229 226 227 227 229 229 232 235 239 243 248 253 257 257 260 259 263 266 270 267 266
294 276 267 255 249 246 230 227 232 235 231 220 226 226 228 230 227 229 229 229 228 230 226 227 227 231 234 240 239 241 250 250 252 250 259 262 257 269 270 266 262 259 262
313 282 265 255 247 240 227 219 222 219 219 219 225 227 228 227 232 233 231 227 227 229 228 227 228 232 240 241 241 241 242 247 245 249 240 255 266 266 271 273 266 262 257
338 309 263 250 245 237 227 212 211 219 221 210 222 223 228 231 230 230 229 230 229 230 229 224 227 231 236 237 238 234 236 234 235 243 246 252 262 263 267 264 264 256 246